Location: Lourdes
(43.1000°N, 0.0500°W)
Time: 12:07:13
(UTC+00:00)

USA 238 DEB - Pass Details

Date: 30 November 2020
Orbit: 996 x 1216 km, 63.4° (Epoch: 22 January)

Event Time Altitude Azimuth Distance (km) Brightness Sun altitude
Rises 19:34:31 0° 231° (SW) 3,721 7.2 -33.7°
Reaches altitude 10° 19:37:08 10° 237° (WSW) 2,790 6.5 -34.2°
Enters shadow 19:43:26 53° 310° (NW) 1,259 4.1 -35.3°
